Voltar ao catálogo

THORAD AGENA D DEB

AtivoSSO
NORAD 6139·DEBRIS·🇺🇸 United States

Lançado Apr 8, 1970 de Vandenberg Space Force Base

Loading…

Próximas Passagens (próximas 24 horas)

TLE

AtualizadoSource: Space-Track

Época: Sep 14, 2026, 14:07 UTC

1 06139U 70025MV  26257.58878134  .00001483  00000-0  97229-3 0  9997
2 06139  98.9043 130.3745 0069714  86.8776 274.0364 14.02385036841546

Acompanhe THORAD AGENA D DEB em tempo real com AllMySat

Download on the App Store